Regional Weather Roundup
Issued by NWS

Home | Current Version | Previous Version | Text Only | Print | Product List | Glossary Off
Versions: 1 2 3 4 5 6 7 8 9 10 11 12 13 14 15 16 17 18 19 20 21 22 23 24 25 26 27 28 29 30 31 32 33 34 35 36 37 38 39 40 41 42 43 44 45 46 47 48 49 50

000
ASUS43 KLOT 210910
RWRIL

ILLINOIS REGIONAL WEATHER ROUNDUP
NATIONAL WEATHER SERVICE CHICAGO/ROMEOVILLE IL
300 AM CST SUN DEC 21 2014

NOTE: "FAIR" INDICATES FEW OR NO CLOUDS BELOW 12,000 FEET WITH NO
SIGNIFICANT WEATHER AND/OR OBSTRUCTIONS TO VISIBILITY.

* THESE STATIONS ARE NOT UNDER NWS QUALITY CONTROL. THEY ALSO MAY NOT
  REPORT WEATHER SUCH AS PRECIPITATION OR FOG.

ILZ001-002-007-009-015-016-024-211000-
NORTHWEST ILLINOIS

CITY           SKY/WX    TMP DP  RH WIND       PRES   REMARKS
MOLINE         CLOUDY    35  32  88 S6        30.16F FOG     WCI  30
STERLING*      CLOUDY    34  28  80 S5        30.19F WCI  30
SAVANNA*       CLOUDY    33  32  95 S7        30.18F FOG     WCI  27
$$

ILZ003-004-008-010-011-017-018-211000-
NORTH CENTRAL ILLINOIS

CITY           SKY/WX    TMP DP  RH WIND       PRES   REMARKS
ROCKFORD       CLOUDY    32  28  85 S7        30.22S WCI  26
FREEPORT*      CLOUDY    32  30  94 S10       30.19F FOG     WCI  23
ROCHELLE*      CLOUDY    31  29  93 S6        30.21F FOG     WCI  25
DE KALB*       CLOUDY    30  28  92 SE8       30.21F FOG     WCI  22
PERU*          CLOUDY    34  31  88 S8        30.21F WCI  28
$$

ILZ005-006-012>014-019>023-211000-
NORTHEAST ILLINOIS

CITY           SKY/WX    TMP DP  RH WIND       PRES   REMARKS
CHICAGO-OHARE  CLOUDY    32  26  78 S7        30.23S WCI  26
CHICAGO-MIDWAY CLOUDY    34  27  75 S7        30.24F WCI  28
AURORA         CLOUDY    33  27  78 SE8       30.23S HAZE    WCI  26
LANSING*       CLOUDY    32  27  82 S8        30.26S WCI  25
JOLIET*        CLOUDY    32  28  84 SE5       30.24F WCI  27
WAUKEGAN       CLOUDY    32  26  78 S6        30.22S WCI  26
DUPAGE AIRPORT CLOUDY    32  27  81 S7        30.22S WCI  26
KANKAKEE*      CLOUDY    31  27  84 S7        30.26F WCI  25
WHEELING       CLOUDY    32  26  78 S6        30.25S WCI  26
MORRIS*        CLOUDY    32  30  93 S6        30.23S WCI  26
ROMEOVILLE*    CLOUDY    32  28  86 S7        30.24S WCI  26
NORTHERLY ISL    N/A     33  26  76 S8          N/A  WCI  26
$$

LMZ740>746-211000-
SOUTHERN LAKE MICHIGAN

STATION/POSITION SKY/WX   TEMP    WIND        PRES    VSBY  WAVE
                          AIR SEA DIR/SP/G                  HT/PER
                          (F)     (DEG/KT/KT) (MB)    (MI)  (FT/S)
WAUKEGAN HARBOR            33     190/  9/ 11   N/A
HARRISON CRIB              33     190/ 13/ 14   N/A
BURNHAM HARBOR             33     200/  7/  9   N/A
CALUMET HARBOR             33     170/  7/ 10 1023.0S
$$

ILZ025>027-034>036-040-047-049-050-058-095>099-211000-
WEST-CENTRAL ILLINOIS

CITY           SKY/WX    TMP DP  RH WIND       PRES   REMARKS
QUINCY         CLOUDY    38  34  85 S8        30.18S WCI  32
GALESBURG*     CLOUDY    34  33  94 SE5       30.18S FOG     WCI  30
MACOMB*        CLOUDY    35  34  95 S6        30.21R FOG     WCI  30
JACKSONVILLE*  CLOUDY    39  34  81 S6        30.20F WCI  35
PITTSFIELD*    CLOUDY    38  35  87 S5        30.20F WCI  35
$$

ILZ028>032-037-038-041>044-048-051>054-059>061-211000-
CENTRAL ILLINOIS

CITY           SKY/WX    TMP DP  RH WIND       PRES   REMARKS
PONTIAC        CLOUDY    33  31  90 S5        30.24S WCI  29
BLOOMINGTON    CLOUDY    32  30  92 S9        30.23F WCI  24
DECATUR        CLOUDY    34  28  79 S7        30.24F WCI  28
PEORIA         CLOUDY    36  29  75 SE7       30.21F WCI  30
LACON*         CLOUDY    34  29  82 S6        30.20F WCI  29
LINCOLN*       CLOUDY    35  32  87 S7        30.23F WCI  29
SPRINGFIELD    CLOUDY    37  31  78 S12       30.22S WCI  29
TAYLORVILLE    CLOUDY    34  30  86 S8        30.23F WCI  27
$$

ILZ033-039-045-046-055>057-062-063-211000-
EAST-CENTRAL ILLINOIS

CITY           SKY/WX    TMP DP  RH WIND       PRES   REMARKS
CHAMPAIGN      CLOUDY    32  28  85 SE10      30.24F WCI  24
DANVILLE*      CLOUDY    29  27  90 S5        30.25S WCI  24
RANTOUL*       CLOUDY    32  30  91 SE7       30.25F WCI  26
MATTOON        CLOUDY    31  26  82 S8        30.25F WCI  23
PARIS*         MOCLDY    29  28  94 SE3       30.28F FOG
$$

ILZ079-100>102-211000-
SOUTHWEST ILLINOIS

CITY           SKY/WX    TMP DP  RH WIND       PRES   REMARKS
ALTON          CLOUDY    38  33  81 SE8       30.23F WCI  32
BELLEVILLE     CLOUDY    38  34  84 SE7       30.23F WCI  33
CAHOKIA*       CLOUDY    40  34  79 SE6       30.23F
SPARTA*        CLOUDY    35  30  82 SE6       30.26S WCI  30
$$

ILZ064>066-069>071-074>076-080>082-084>086-088>090-092>094-211000-
SOUTH-CENTRAL ILLINOIS

CITY           SKY/WX    TMP DP  RH WIND       PRES   REMARKS
CARBONDALE     CLOUDY    27  25  92 CALM      30.27F
CAIRO*         CLEAR     30  30 100 NE3       30.27F FOG
EFFINGHAM*     CLOUDY    32  27  79 SE5       30.28F WCI  28
MARION         CLEAR     30  27  86 CALM      30.28F
MT. VERNON     CLOUDY    34  27  75 SE3       30.28S
CENTRALIA*     CLOUDY    35  29  80 SE6       30.26S WCI  30
SALEM*         CLOUDY    36  30  78 SE5       30.27R WCI  32
METROPOLIS*    CLEAR     25  25 100 CALM      30.26F FOG
$$

ILZ067-068-072-073-078-083-087-091-211000-
SOUTHEAST ILLINOIS

CITY           SKY/WX    TMP DP  RH WIND       PRES   REMARKS
LAWRENCEVILLE  CLEAR     24  22  91 E5        30.29F FOG     WCI  18
FLORA*         CLEAR     32  28  86 SE6       30.28S WCI  26
FAIRFIELD*     CLEAR     29  26  88 CALM      30.27S
HARRISBURG*    CLEAR     27  26  98 CALM      30.30S
ROBINSON*      CLEAR     21  21  98 CALM      30.30F FOG
CARMI*         CLEAR     24  24 100 CALM      30.29S FOG
$$

ABBREVIATIONS USED IN REMARKS
   TC - TEMPERATURE IN CELSIUS
  WCI - WIND CHILL INDEX
   HX - HEAT INDEX
  VSB - VISIBILITY
$$




USA.gov is the U.S. government's official web portal to all federal, state and local government web resources and services.